Location: Platte
(43.3870°N, 98.8440°W)
Time: 05:20:48
(UTC-05:00)

Landsat 7 - Visible Passes

Search period start: 28 July 2014 00:00
Search period end: 07 August 2014 00:00
Orbit: 702 x 703 km, 98.2° (Epoch: 27 July)

Date Brightness Start Highest point End Pass type
(mag) Time Alt. Az. Time Alt. Az. Time Alt. Az.
28 Jul 5.9 00:28:20 15° WSW 00:29:50 17° W 00:32:52 10° NW visible
28 Jul 5.6 21:54:06 10° ESE 21:57:12 18° ENE 22:00:19 10° NNE visible
28 Jul 4.2 23:32:46 36° SSW 23:34:30 57° W 23:39:12 10° NNW visible
29 Jul 4.4 22:37:13 24° SE 22:39:36 42° ENE 22:44:05 10° N visible
30 Jul 5.6 00:16:07 19° WSW 00:17:30 22° W 00:21:11 10° NW visible
30 Jul 5.8 21:42:48 10° E 21:45:10 14° ENE 21:47:32 10° NNE visible
30 Jul 3.9 23:20:33 40° S 23:22:16 76° WSW 23:27:03 10° NNW visible
31 Jul 4.8 22:25:00 20° ESE 22:27:29 32° ENE 22:31:42 10° N visible
01 Aug 5.3 00:03:54 25° WSW 00:05:12 28° W 00:09:19 10° NW visible
01 Aug 6.0 21:32:07 10° ENE 21:33:08 11° ENE 21:34:09 10° NE visible
01 Aug 3.7 23:08:21 40° SSE 23:10:04 83° ENE 23:14:51 10° NNW visible
02 Aug 6.4 00:47:19 10° WSW 00:48:25 11° W 00:49:32 10° WNW visible
02 Aug 5.1 22:12:48 16° ESE 22:15:23 25° ENE 22:19:15 10° N visible
02 Aug 4.9 23:51:42 32° SW 23:52:56 37° W 23:57:21 10° NNW visible
03 Aug 3.9 22:56:09 37° SE 22:57:54 63° ENE 23:02:36 10° N visible
04 Aug 6.1 00:35:02 14° WSW 00:36:04 15° W 00:38:40 10° WNW visible
04 Aug 5.4 22:00:36 13° ESE 22:03:18 20° ENE 22:06:42 10° NNE visible
04 Aug 4.4 23:39:30 40° SW 23:40:41 49° W 23:45:18 10° NNW visible
05 Aug 4.2 22:43:57 32° ESE 22:45:44 48° ENE 22:50:18 10° N visible
06 Aug 5.8 00:22:51 18° WSW 00:23:44 19° W 00:27:07 10° NW visible
06 Aug 5.7 21:48:28 10° E 21:51:14 16° ENE 21:54:01 10° NNE visible
06 Aug 4.0 23:27:18 48° SSW 23:28:27 66° WSW 23:33:11 10° NNW visible
